STARLINK-36312, 67609

Orbit data source: Space-Track

STARLINK-36312, 67609 is a payload satellite owned by SpaceX/Seattle (US) in SSO that was launched on Thu, 29 Jan 2026 UTC via an FALCON 9 launch vehicle from the Air Force Western Test Range (AFWTR). Payload-class satellites include a variety of spacecraft equipped with specific instruments for various scientific and technological missions. These include communications satellites like Starlink; space stations such as the ISS; scientific satellites like the Hubble; Earth observation satellites from companies like Planet Labs, Umbra, and HawkEye 360; GPS; miniature CubeSats for education and research; and military/defense satellites.

Loading next visibility...
Identifier
67609, 2026-018W
Orbit
SSO
Country
Flag of USUS
Related business
Manufacturer
SpaceX/Seattle
Mission
Operational Commercial Communications
Bus & Motor
STARLINK V2MO, Unknown motor
Mass
575 kg wet, ~530 kg dry
Launch date (UTC)
2026-01-29 (5 months ago)
Launch vehicle
FALCON 9
Launch site
Air Force Western Test Range (AFWTR)
Object type
Payload
Rocket body
Debris
Shape & HBR
Box + 2 Pan, 17.7 m
Radar Cross Section
36.964 m², Large (>1 m²)

Expand to show TLE details & history
Last TLE update: 11 hours ago

TLE from 11 hours ago
0 STARLINK-36312
1 67609U 26018W   26171.43314080  .00024049  00000-0  74428-3 0  9992
2 67609  97.2856 236.2471 0000930 144.9670 215.1634 15.33470618 23088
Epoch: 2026-06-20T10:23Z
TLE epoch observation values (Epoch: 2026-06-20T10:23:43.365Z)
Latitude
-0.00001°
Longitude
171.66858°
Altitude
469.099 km
Speed
7.631 km/s
True Right ascension
15h 44m 59s
True Declination
0° 00' 00"
Sunlit
Object was in full shadow at epoch
Visualization orbit readout
Latitude
Unknown
Longitude
Unknown
Altitude
Unknown
Speed
Unknown
Apparent Right ascension
Unknown
Apparent Declination
Unknown
Sunlit
N/A
Visualization observer readout
Local Sidereal Time
08:32:39
Azimuth
Unknown
Elevation
Unknown
Doppler factor
Unknown
Orbital elements
Apogee altitude
463.046 km
Perigee altitude
461.774 km
Semi-major axis
6,840.547 km
Eccentricity
0.00009
Inclination
97.2856°
RAAN
236.2471°
Arg. of periapsis
144.967°
True anomaly
215.15726°
Mean anomaly
215.1634°
Eccentric anomaly
215.16033°
Mean motion
3.83625 °/min
Orbital period
93.84 mins
BSTAR
0.00074428
Loading maneuver chart data...
Computing Atmospheric mass density...
Loading historical data...
Loading historical data...
Loading historical data...
Loading historical data...
Loading historical data...
Loading historical data...
Loading historical data...

Documentation

Showing up to 5 results
|